TimeCDT,TemperatureF,Dew PointF,Humidity,Sea Level PressureIn,VisibilityMPH,Wind Direction,Wind SpeedMPH,Gust SpeedMPH,PrecipitationIn,Events,Conditions,WindDirDegrees,DateUTC
12:54 AM,57.9,55.0,90,29.81,10.0,SW,8.1,-,N/A,,Clear,230,2013-05-22 05:54:00
1:54 AM,57.0,54.0,89,29.81,10.0,West,8.1,-,N/A,,Scattered Clouds,260,2013-05-22 06:54:00
2:54 AM,54.0,50.0,86,29.81,10.0,Calm,Calm,-,N/A,,Clear,0,2013-05-22 07:54:00
3:54 AM,54.0,50.0,86,29.82,10.0,WNW,3.5,-,N/A,,Clear,300,2013-05-22 08:54:00
4:54 AM,53.1,50.0,89,29.83,10.0,Calm,Calm,-,N/A,,Clear,0,2013-05-22 09:54:00
5:54 AM,53.1,50.0,89,29.84,10.0,Calm,Calm,-,N/A,,Scattered Clouds,0,2013-05-22 10:54:00
6:54 AM,52.0,50.0,93,29.87,10.0,WNW,3.5,-,N/A,,Clear,300,2013-05-22 11:54:00
7:04 AM,53.6,50.0,88,29.89,10.0,Calm,Calm,-,N/A,,Partly Cloudy,0,2013-05-22 12:04:00
7:54 AM,57.0,52.0,83,29.88,10.0,NW,4.6,-,N/A,,Clear,320,2013-05-22 12:54:00
8:54 AM,61.0,52.0,72,29.90,10.0,NNW,9.2,-,N/A,,Clear,330,2013-05-22 13:54:00
9:54 AM,64.0,52.0,65,29.91,10.0,NW,10.4,-,N/A,,Clear,320,2013-05-22 14:54:00
10:54 AM,66.0,53.1,63,29.92,-9999.0,WNW,15.0,-,N/A,,Clear,290,2013-05-22 15:54:00
11:54 AM,-9999,-9999,N/A,29.94,-9999.0,North,-9999.0,-,N/A,,Unknown,0,2013-05-22 16:54:00
12:54 PM,69.1,55.0,61,29.91,10.0,WNW,9.2,-,N/A,,Clear,300,2013-05-22 17:54:00
1:54 PM,72.0,55.9,57,29.91,10.0,West,13.8,-,N/A,,Clear,270,2013-05-22 18:54:00
2:54 PM,73.0,57.0,57,29.88,10.0,WNW,10.4,-,N/A,,Clear,290,2013-05-22 19:54:00
3:54 PM,73.9,57.0,55,29.87,10.0,Calm,Calm,-,N/A,,Clear,0,2013-05-22 20:54:00
4:54 PM,75.9,57.0,52,29.86,10.0,WNW,8.1,-,N/A,,Clear,290,2013-05-22 21:54:00
5:54 PM,75.0,57.0,53,29.87,10.0,West,4.6,-,N/A,,Clear,270,2013-05-22 22:54:00
6:54 PM,75.0,57.0,53,29.88,5.0,West,4.6,-,N/A,,Haze,270,2013-05-22 23:54:00
7:54 PM,75.0,54.0,48,29.88,10.0,Calm,Calm,-,N/A,,Clear,0,2013-05-23 00:54:00
8:54 PM,72.0,55.9,57,29.89,10.0,East,3.5,-,N/A,,Clear,90,2013-05-23 01:54:00
9:54 PM,66.9,57.0,70,29.91,10.0,ESE,3.5,-,N/A,,Clear,120,2013-05-23 02:54:00
10:54 PM,64.9,57.0,75,29.93,10.0,ESE,4.6,-,N/A,,Clear,110,2013-05-23 03:54:00
11:54 PM,64.0,55.9,75,29.95,10.0,East,4.6,-,N/A,,Clear,90,2013-05-23 04:54:00